Weather in Denver

United States     39˚44′23″N   104˚59′08″W
temp.,
°C
wind,
m/s
gust,
m/s
humid.,
%
clouds,
%
prec.,
mm/h
press.,
hPa
HPBL,
m
2 december, wed
wed223:00−1˚nne61150100 0.0 10321543
02:00−2˚nne6948100 0.0 10351152
05:00−4˚nne484871 0.0 1038827
08:00−4˚nne244490 0.0 1040541
11:00−2˚nne462784 0.0 10371216
14:00−1˚nne5833100 0.0 10341412
17:00−1˚n244091 0.0 1037282
20:00−1˚nnw124123 0.0 103968
3 december, thu
thu323:00−2˚s234624 0.0 1038184
02:00−2˚ssw23450 0.0 1037113
05:00−1˚sw22440 0.0 103644
08:00−1˚ssw24410 0.0 1034103
11:00+3˚ssw23330 0.0 1027145
14:00+6˚sse12240 0.0 1022103
17:00+3˚sw11230 0.0 102522
20:00+2˚wsw23410 0.0 102833
4 december, fri
fri423:00+1˚sw23390 0.0 102748
02:00+1˚sw22380 0.0 102626
05:00+1˚sw22400 0.0 102624
08:00+2˚ssw23400 0.0 102635
11:00+7˚ssw11290 0.0 102285
14:00+10˚nnw00210 0.0 1020138
17:00+8˚w12240 0.0 102322
20:00+5˚wsw22370 0.0 102624
5 december, sat
sat523:00+4˚sw22410 0.0 102827
02:00+4˚wsw11400 0.0 102922
05:00+3˚ssw12390 0.0 103022
08:00+3˚ssw22360 0.0 103124
11:00+8˚sse12270 0.0 1027199
14:00+9˚ene22290 0.0 1024540
17:00+7˚ene12380 0.0 102622
20:00+5˚ssw22410 0.0 102731
6 december, sun
sun623:00+4˚s22490 0.0 102741
02:00+3˚sw12460 0.0 102623
05:00+3˚ssw12370 0.0 102525
08:00+3˚ssw22310 0.0 102427
11:00+8˚sse11220 0.0 1020128
14:00+11˚n11170 0.0 1017234
17:00+8˚nnw12210 0.0 102022
20:00+6˚sw11270 0.0 102222